Theta_e
313 316 317 318 317 317 316 316 318 318 311 312 314 314 314 313 313 313 312 313 309 305 306 305 305 302 301 299 298 297 296 296 295 295 295 295 295 295 295 295 295 294 294 293
314 316 317 313 313 314 315 317 319 317 310 309 313 312 312 312 313 312 313 313 312 306 304 302 303 302 301 299 297 296 296 295 295 295 295 295 295 295 295 295 294 293 293 293
315 316 310 313 313 314 315 317 318 316 311 308 308 313 311 311 308 309 310 310 310 307 305 302 303 303 300 298 297 296 296 296 295 294 294 294 294 294 293 293 293 293 293 292
314 312 312 313 315 315 317 314 313 312 313 316 309 316 315 313 311 311 312 311 308 310 307 305 305 303 302 300 297 296 295 295 294 293 293 293 292 292 293 292 293 292 291 290
315 311 311 314 315 313 316 308 310 309 312 309 314 312 314 307 310 312 314 313 309 310 309 309 308 306 303 300 298 296 295 294 293 292 291 291 292 292 291 292 291 291 290 290
312 306 310 313 305 307 305 308 308 306 308 314 314 313 313 313 312 312 313 311 309 310 310 308 306 303 301 300 298 296 294 294 293 291 291 291 291 291 291 290 290 289 290 289
312 311 307 306 311 307 308 313 318 321 318 318 309 310 312 312 312 312 314 313 309 308 309 308 307 305 303 302 299 296 294 293 292 290 290 290 290 290 290 289 290 289 288 288
315 316 308 308 314 316 310 315 320 323 319 318 305 311 314 311 311 311 307 307 307 307 307 308 308 306 306 304 300 297 294 293 291 290 289 289 290 290 290 289 288 287 287 288
314 315 305 304 305 311 309 312 312 317 305 313 314 315 312 309 308 307 306 306 306 307 308 309 308 306 306 305 304 300 295 292 291 290 289 289 290 289 289 289 288 287 287 287
314 314 308 302 303 302 306 307 312 313 320 319 315 315 314 313 311 309 307 307 308 308 308 309 308 308 306 305 303 298 295 294 292 290 289 289 289 289 289 288 287 287 287 287
312 314 310 305 307 310 306 309 307 309 313 317 316 315 310 311 311 310 310 310 310 308 309 309 309 308 306 304 302 300 295 293 291 289 289 289 289 289 288 287 287 287 287 287
311 313 315 313 303 302 308 310 310 313 314 311 313 315 310 310 311 309 310 309 309 310 309 309 309 308 307 305 302 299 293 293 291 289 289 288 289 288 287 287 287 287 287 286
309 312 317 315 306 301 306 306 308 310 312 313 315 313 312 312 310 308 309 309 309 310 309 308 308 307 306 303 300 297 292 291 290 289 288 288 288 288 287 287 287 287 286 286
309 312 315 313 313 308 309 308 307 309 312 313 313 312 312 312 311 311 310 305 307 308 308 308 308 307 304 302 299 295 291 291 290 288 288 288 288 287 287 287 287 287 286 286
310 313 313 314 314 313 313 311 309 308 309 311 312 312 312 312 311 311 310 309 309 309 306 307 307 306 303 301 297 294 292 290 289 288 288 287 287 287 286 287 286 286 286 285
307 313 312 312 311 311 312 311 312 312 311 311 309 309 309 310 310 309 309 309 308 308 308 306 306 306 305 303 299 295 291 289 288 287 287 287 287 286 287 286 286 286 285 284
308 310 312 314 312 312 313 312 312 312 312 312 312 311 311 311 310 310 310 309 308 307 307 307 306 306 306 304 301 296 292 289 288 287 287 287 286 286 286 286 286 285 283 282
311 310 311 313 313 314 313 311 311 311 311 311 311 311 311 311 310 309 309 309 309 308 308 307 306 306 305 303 298 293 291 288 287 286 287 286 286 286 286 285 284 283 282 281
310 311 312 313 314 313 309 310 310 310 311 310 310 309 310 309 309 309 308 308 307 308 307 307 307 305 303 300 296 293 289 287 286 286 286 286 286 286 285 284 283 282 282 280
309 310 311 313 314 315 313 311 309 306 309 310 309 308 308 307 309 310 309 309 308 309 308 308 306 303 300 298 297 293 288 287 286 286 286 286 286 284 283 283 282 281 280 279
310 310 311 312 313 314 311 307 306 309 311 310 309 309 308 308 309 309 310 306 307 307 307 307 306 303 299 295 293 290 287 286 286 286 285 286 285 283 283 282 281 280 278 277
313 312 312 311 312 313 311 311 309 311 311 310 310 310 308 308 308 307 308 307 305 306 306 305 304 299 295 293 290 287 285 285 285 285 285 285 283 283 282 282 280 278 277 277
314 313 313 312 313 311 310 311 310 309 311 311 310 310 309 307 306 308 308 309 309 305 302 300 300 297 293 289 288 286 285 285 285 285 285 284 282 281 281 280 279 278 276 276
309 311 310 311 311 311 309 309 309 310 309 308 309 309 308 307 307 308 308 307 307 306 302 296 294 292 289 285 286 286 285 285 284 285 284 282 281 280 279 279 278 277 276 275
304 303 305 305 305 305 308 309 309 309 308 308 308 307 307 306 305 306 306 307 307 305 300 294 291 289 288 284 285 284 285 285 285 285 283 282 280 279 278 277 277 276 274 274
298 301 303 305 306 306 306 305 304 303 304 306 307 308 308 308 307 306 306 306 304 303 300 293 288 288 287 284 283 284 284 285 285 284 282 280 278 277 277 276 275 274 273 274
Wind_Speed
2 7 16 18 17 14 7 8 16 14 4 5 16 20 25 32 29 36 36 31 26 29 26 31 36 39 41 39 37 35 33 30 26 25 23 22 20 17 15 13 12 13 16 19
4 15 18 0 6 9 8 13 20 13 2 7 14 21 24 23 32 35 36 34 24 22 21 27 35 40 43 42 40 37 35 32 29 28 27 26 23 20 17 14 12 14 17 19
16 11 2 8 8 11 11 18 14 10 5 7 11 17 7 8 15 21 32 28 20 22 22 25 32 38 43 45 43 41 37 34 32 31 30 28 25 21 17 14 14 16 17 20
10 4 8 7 11 12 13 9 11 7 5 11 4 19 11 9 11 13 32 20 19 21 21 23 26 34 42 46 44 41 39 36 34 32 30 29 26 21 18 17 17 17 18 20
6 8 9 10 9 11 5 2 4 3 8 6 11 10 10 2 7 18 21 18 20 22 21 21 25 27 31 40 44 42 40 38 37 34 31 29 26 22 20 18 17 18 19 20
7 1 5 4 3 0 9 3 2 1 3 9 17 14 8 4 7 9 14 13 14 18 18 18 19 20 25 32 41 43 42 41 39 36 33 30 25 22 21 19 18 19 21 22
5 9 3 4 5 3 5 4 6 6 5 12 3 8 20 14 13 13 18 11 12 15 15 16 19 20 22 28 35 45 46 44 41 37 33 29 25 22 20 19 20 22 22 23
7 14 13 12 16 7 12 8 6 11 13 22 7 11 13 10 18 25 12 15 11 14 16 18 19 20 22 25 30 42 47 46 42 37 34 30 25 22 20 20 21 22 24 24
8 15 3 1 1 5 8 8 2 4 2 8 11 22 8 6 11 10 19 17 23 22 19 20 20 22 21 24 30 37 47 47 43 39 35 30 25 22 21 22 21 21 24 27
4 10 3 3 2 1 4 5 4 3 6 16 24 30 17 11 15 10 11 20 25 22 22 24 22 23 24 24 28 34 45 49 45 40 35 30 26 22 21 20 20 21 25 29
5 6 3 6 12 16 6 6 4 3 5 9 19 18 3 5 3 11 14 22 19 22 28 26 23 25 25 26 30 35 43 49 48 42 36 31 26 23 20 18 20 23 26 30
8 3 11 21 3 2 8 15 18 9 10 9 13 28 6 5 5 4 8 16 16 14 22 24 24 26 30 32 34 38 43 50 49 42 36 31 26 22 19 19 20 23 26 29
10 5 6 12 5 2 8 8 11 17 15 30 13 24 15 21 7 8 11 17 18 20 27 28 29 33 36 35 36 39 44 49 49 43 36 31 26 21 20 18 20 23 26 29
12 6 12 20 21 2 5 13 19 23 17 22 25 30 37 35 22 23 26 21 26 34 35 37 41 43 38 36 37 39 43 49 49 42 36 30 26 21 19 18 19 21 25 29
5 11 12 19 23 22 24 19 19 26 28 27 30 25 33 34 27 26 33 29 32 34 33 40 43 43 38 36 39 42 45 50 48 42 35 29 24 20 18 17 18 20 24 26
4 18 19 26 30 32 34 23 35 32 35 30 25 28 36 37 48 38 50 38 43 43 41 41 45 41 38 41 43 44 45 51 48 40 33 28 23 19 17 17 18 21 24 25
9 7 9 21 24 23 15 32 34 41 38 32 31 34 36 34 30 32 46 37 40 47 47 40 43 43 40 40 42 45 46 52 46 39 33 27 22 19 17 17 18 20 23 25
15 20 13 10 8 17 22 24 37 36 36 34 29 36 35 35 47 49 45 36 40 45 48 41 43 38 37 37 39 40 46 50 45 40 33 28 23 18 17 15 16 19 23 24
25 21 10 9 16 21 3 17 23 23 34 29 33 34 36 47 25 41 43 43 47 48 46 41 45 33 31 36 38 41 44 48 44 38 32 26 21 17 14 14 15 19 23 24
25 25 18 12 14 21 21 28 26 5 8 29 29 29 30 9 9 19 46 32 35 36 37 35 32 29 31 37 40 40 51 51 44 36 29 23 18 15 11 11 14 19 22 23
9 14 24 22 22 15 11 9 4 12 19 32 37 29 25 22 25 43 36 20 24 26 27 27 26 29 31 35 37 42 53 49 41 35 27 21 17 13 10 9 13 19 21 22
23 11 11 13 18 25 17 26 23 28 38 35 33 26 20 30 41 39 43 42 34 31 31 30 28 31 35 35 39 49 50 43 37 30 24 18 14 11 8 9 11 16 20 22
21 26 25 19 13 10 20 28 48 53 39 36 31 36 24 31 34 40 41 42 43 37 35 32 32 34 33 37 44 50 47 41 34 28 21 16 12 10 8 7 10 13 16 19
7 15 11 20 24 17 14 23 32 37 41 45 45 44 27 28 32 36 37 40 44 43 41 34 33 35 39 46 50 50 45 38 30 24 18 13 11 9 6 6 9 11 14 16
11 9 8 15 23 24 28 26 26 27 35 36 43 41 40 36 39 44 44 47 50 46 43 39 37 38 43 52 52 50 45 37 30 24 18 15 13 9 5 5 6 7 10 14
22 21 15 19 20 17 19 25 34 40 45 45 40 44 49 46 48 46 46 47 49 47 45 44 41 43 47 54 53 47 41 36 31 24 21 17 13 9 5 3 4 5 8 11
Wind_Direction
147 229 240 246 230 267 267 258 261 267 196 243 255 261 269 281 277 265 272 266 253 243 248 230 227 224 224 224 223 224 225 228 227 229 229 230 233 236 245 256 279 300 307 308
178 239 252 356 216 228 233 260 264 280 240 219 274 273 273 267 268 270 272 271 257 247 231 222 224 224 226 227 225 225 225 228 229 231 231 230 230 234 243 255 279 293 296 307
230 260 80 198 207 206 227 236 255 265 323 234 293 275 238 257 262 270 263 261 250 238 226 220 222 225 225 225 226 227 227 230 232 231 231 231 232 237 246 260 274 285 303 302
241 245 211 198 229 205 239 230 244 263 295 280 4 291 281 252 244 264 272 257 241 241 231 226 225 225 226 229 227 228 229 230 232 232 232 231 233 238 246 257 275 290 293 298
224 180 190 206 229 177 249 103 170 206 255 315 254 269 279 167 244 257 261 263 234 227 228 230 233 233 233 229 230 228 229 230 232 233 233 233 237 243 252 264 277 286 294 300
261 150 216 213 83 118 136 113 134 144 258 254 256 225 278 229 211 248 265 235 222 210 215 227 234 228 226 229 231 228 229 230 232 231 232 234 239 245 256 269 277 289 293 295
196 220 171 174 135 119 194 177 278 258 226 264 152 233 261 283 242 234 254 256 212 203 207 224 226 221 223 228 229 226 228 228 229 230 232 234 238 247 258 268 283 287 293 302
238 255 183 183 217 207 185 216 204 261 278 288 114 250 277 227 252 247 261 259 223 221 233 231 228 225 225 232 232 228 228 229 228 228 230 234 240 248 262 273 278 290 300 307
209 256 100 240 107 181 163 198 231 282 112 282 255 259 238 190 255 249 252 245 243 245 238 229 231 231 228 235 238 236 227 227 228 228 229 234 240 247 258 269 283 296 301 303
251 257 123 125 144 46 227 138 136 199 261 260 275 282 276 239 245 215 237 238 241 239 227 230 233 237 232 241 243 237 229 229 229 228 229 233 239 247 259 273 287 294 299 303
207 218 202 150 204 192 169 203 225 308 226 254 268 268 82 198 233 207 221 233 243 240 230 228 241 237 239 242 240 237 229 226 226 223 227 232 239 247 259 274 285 294 302 307
208 203 232 238 138 318 253 232 213 226 224 234 260 271 112 46 143 196 245 247 251 247 234 229 240 238 245 244 236 234 226 224 224 222 224 228 236 245 258 271 284 296 304 310
168 203 239 251 212 177 212 206 230 241 258 249 234 254 255 268 290 246 243 254 267 255 252 245 243 249 250 241 235 230 226 222 220 220 221 226 233 242 256 273 287 300 308 312
182 172 216 239 251 93 196 227 221 224 233 253 243 260 275 275 273 277 271 258 258 262 258 256 255 258 249 242 236 228 223 221 218 217 219 224 230 240 256 269 287 302 308 311
175 233 238 252 267 279 280 275 257 236 243 244 258 260 263 275 276 271 274 274 272 268 258 260 261 257 248 239 234 231 226 218 215 214 216 221 229 241 256 276 292 301 306 310
196 246 247 253 260 263 260 262 263 266 260 254 256 262 263 268 277 282 276 270 273 271 264 263 268 260 251 245 238 231 224 214 212 211 213 218 227 241 258 277 290 299 306 310
208 217 210 239 228 246 252 239 247 255 261 256 254 253 267 268 265 261 271 276 268 268 267 265 260 264 261 249 238 230 222 211 209 208 211 216 227 240 259 275 287 300 308 312
242 226 228 247 229 229 231 241 236 243 249 257 254 253 255 259 265 273 272 271 265 265 271 269 268 265 254 241 231 224 219 207 206 206 207 213 222 237 256 273 290 304 309 315
218 231 235 232 224 243 185 233 225 230 245 256 250 252 250 255 268 270 266 263 264 269 273 271 273 268 248 230 222 219 209 203 203 205 207 212 221 236 255 276 297 304 310 315
225 227 229 225 233 238 237 236 241 73 251 250 242 249 255 263 248 262 274 263 263 270 270 270 268 250 230 219 215 210 202 199 198 201 205 212 227 239 251 280 301 309 313 319
205 216 227 234 246 247 219 215 122 200 243 245 250 248 251 251 240 254 275 261 260 257 254 254 258 249 233 221 211 202 198 196 195 196 201 210 224 238 259 287 306 312 315 321
223 206 213 232 243 249 218 227 221 236 242 243 257 258 234 248 252 250 258 264 263 254 251 243 237 228 222 212 203 198 193 193 193 193 199 210 221 237 257 286 310 313 318 323
231 226 237 221 234 240 213 222 229 240 251 253 255 258 256 251 253 262 259 264 269 262 251 237 229 218 212 203 197 193 191 191 191 192 198 208 216 232 253 290 309 313 320 324
289 281 279 270 259 282 278 248 247 248 246 251 257 264 267 250 259 264 267 267 266 259 249 235 221 210 199 193 191 192 188 188 192 193 197 206 215 223 246 288 306 318 328 329
275 292 280 284 287 280 284 283 293 304 306 289 278 276 273 265 264 266 265 269 268 257 243 232 220 206 198 193 188 187 187 187 189 196 198 201 208 213 232 272 300 322 330 339
269 278 281 280 300 294 289 300 301 299 295 295 292 288 284 284 274 269 267 268 263 252 241 227 216 207 198 190 185 184 184 187 194 190 193 193 197 199 205 245 304 341 342 337